| time (UTC) | temp F | wind direction | speed MPH | gust MPH | rain 1hr in | rain 24hr in | rain mn in | humidity % | barometer mb |
| 20260902214933 | 73 | 305 | 0.0 | 0.0 | 0.00 | 0.02 | 0.02 | 96 | 1023.9 |
| 20260902214747 | 73 | 306 | 0.0 | 0.0 | 0.00 | 0.02 | 0.02 | 96 | 1023.8 |
| 20260902213931 | 73 | 305 | 0.0 | 0.0 | 0.00 | 0.02 | 0.02 | 96 | 1023.7 |
| 20260902213428 | 73 | 306 | 0.0 | 0.0 | 0.00 | 0.02 | 0.02 | 96 | 1023.8 |
| 20260902212924 | 73 | 305 | 0.0 | 0.0 | 0.00 | 0.02 | 0.02 | 96 | 1023.7 |
| 20260902212422 | 73 | 305 | 0.0 | 0.0 | 0.00 | 0.02 | 0.02 | 96 | 1023.7 |
| 20260902211921 | 73 | 306 | 0.0 | 0.0 | 0.00 | 0.02 | 0.02 | 96 | 1023.7 |
| 20260902211415 | 73 | 306 | 0.0 | 0.0 | 0.00 | 0.02 | 0.02 | 96 | 1023.6 |
| 20260902210910 | 73 | 306 | 0.0 | 0.0 | 0.00 | 0.02 | 0.02 | 96 | 1023.6 |
| 20260902210405 | 73 | 306 | 0.0 | 0.0 | 0.00 | 0.02 | 0.02 | 96 | 1023.5 |
| 20260902210224 | 73 | 305 | 0.0 | 0.0 | 0.00 | 0.02 | 0.02 | 96 | 1023.5 |
| 20260902205405 | 73 | 305 | 0.0 | 0.0 | 0.00 | 0.02 | 0.02 | 96 | 1023.4 |
| 20260902204907 | 74 | 305 | 0.0 | 0.0 | 0.00 | 0.02 | 0.02 | 96 | 1023.4 |
| 20260902204406 | 73 | 306 | 0.0 | 1.0 | 0.00 | 0.02 | 0.02 | 96 | 1023.5 |
| 20260902203905 | 74 | 305 | 0.0 | 2.0 | 0.00 | 0.02 | 0.02 | 96 | 1023.4 |
| 20260902203403 | 74 | 306 | 1.0 | 2.0 | 0.00 | 0.02 | 0.02 | 96 | 1023.4 |
| 20260902202856 | 74 | 306 | 1.0 | 2.0 | 0.00 | 0.02 | 0.02 | 96 | 1023.4 |
| 20260902202355 | 74 | 305 | 0.0 | 2.0 | 0.00 | 0.02 | 0.02 | 96 | 1023.4 |
| 20260902201854 | 74 | 305 | 0.0 | 3.0 | 0.01 | 0.02 | 0.02 | 96 | 1023.4 |
| 20260902201354 | 74 | 306 | 2.0 | 3.0 | 0.01 | 0.02 | 0.02 | 96 | 1023.3 |
| 20260902200850 | 74 | 306 | 2.0 | 3.0 | 0.01 | 0.02 | 0.02 | 96 | 1023.4 |
| 20260902200440 | 74 | 305 | 2.0 | 3.0 | 0.01 | 0.02 | 0.02 | 96 | 1023.5 |
| 20260902195335 | 74 | 306 | 1.0 | 5.0 | 0.01 | 0.02 | 0.02 | 96 | 1023.5 |
| 20260902194834 | 74 | 305 | 2.0 | 5.0 | 0.01 | 0.02 | 0.02 | 96 | 1023.5 |
| 20260902194334 | 74 | 305 | 4.0 | 5.0 | 0.01 | 0.02 | 0.02 | 96 | 1023.6 |
| 20260902193834 | 74 | 306 | 2.0 | 4.0 | 0.02 | 0.02 | 0.02 | 96 | 1023.6 |
| 20260902193651 | 74 | 306 | 3.0 | 4.0 | 0.02 | 0.02 | 0.02 | 96 | 1023.7 |
| 20260902192833 | 74 | 306 | 0.0 | 0.0 | 0.02 | 0.02 | 0.02 | 96 | 1023.7 |
| 20260902192332 | 74 | 306 | 0.0 | 0.0 | 0.02 | 0.02 | 0.02 | 96 | 1023.6 |
| 20260902191832 | 74 | 306 | 0.0 | 0.0 | 0.02 | 0.02 | 0.02 | 95 | 1023.7 |
| 20260902191332 | 74 | 306 | 0.0 | 0.0 | 0.02 | 0.02 | 0.02 | 95 | 1023.7 |
| 20260902190832 | 74 | 306 | 0.0 | 0.0 | 0.02 | 0.02 | 0.02 | 95 | 1023.7 |
| 20260902190334 | 74 | 305 | 0.0 | 0.0 | 0.02 | 0.02 | 0.02 | 95 | 1023.7 |
| 20260902185835 | 75 | 305 | 0.0 | 0.0 | 0.02 | 0.00 | 0.02 | 95 | 1023.7 |
| 20260902185335 | 75 | 306 | 0.0 | 0.0 | 0.02 | 0.00 | 0.02 | 94 | 1023.7 |
| 20260902184834 | 75 | 305 | 0.0 | 0.0 | 0.02 | 0.00 | 0.02 | 95 | 1023.7 |
| 20260902184333 | 75 | 306 | 0.0 | 2.0 | 0.02 | 0.00 | 0.02 | 95 | 1023.7 |
| 20260902183832 | 75 | 306 | 1.0 | 3.0 | 0.01 | 0.00 | 0.01 | 94 | 1023.8 |
| 20260902183333 | 75 | 305 | 0.0 | 4.0 | 0.01 | 0.00 | 0.01 | 94 | 1023.8 |
| 20260902182833 | 75 | 306 | 3.0 | 4.0 | 0.01 | 0.00 | 0.01 | 93 | 1023.9 |
| 20260902182334 | 75 | 280 | 2.0 | 3.0 | 0.01 | 0.00 | 0.01 | 93 | 1023.8 |
| 20260902182138 | 75 | 280 | 2.0 | 3.0 | 0.00 | 0.00 | 0.00 | 93 | 1023.8 |
| 20260902181620 | 75 | 249 | 2.0 | 4.0 | 0.00 | 0.00 | 0.00 | 92 | 1024.0 |
| 20260902180810 | 76 | 247 | 3.0 | 4.0 | 0.00 | 0.00 | 0.00 | 92 | 1024.0 |
| 20260902180306 | 76 | 249 | 3.0 | 5.0 | 0.00 | 0.00 | 0.00 | 91 | 1023.9 |
| 20260902175804 | 76 | 251 | 4.0 | 5.0 | 0.00 | 0.00 | 0.00 | 91 | 1023.9 |
| 20260902175307 | 76 | 237 | 3.0 | 6.0 | 0.00 | 0.00 | 0.00 | 90 | 1023.8 |
| 20260902175118 | 76 | 229 | 5.0 | 6.0 | 0.00 | 0.00 | 0.00 | 90 | 1023.8 |
| 20260902174302 | 77 | 225 | 4.0 | 5.0 | 0.00 | 0.00 | 0.00 | 89 | 1023.9 |
| 20260902173759 | 77 | 226 | 4.0 | 5.0 | 0.00 | 0.00 | 0.00 | 89 | 1023.9 |
| 20260902173254 | 77 | 220 | 3.0 | 5.0 | 0.00 | 0.00 | 0.00 | 89 | 1023.9 |
| 20260902172750 | 77 | 210 | 4.0 | 5.0 | 0.00 | 0.00 | 0.00 | 89 | 1023.8 |
| 20260902172553 | 78 | 210 | 3.0 | 5.0 | 0.00 | 0.00 | 0.00 | 89 | 1023.9 |
| 20260902171751 | 78 | 206 | 2.0 | 5.0 | 0.00 | 0.00 | 0.00 | 89 | 1023.9 |
| 20260902171249 | 78 | 219 | 3.0 | 5.0 | 0.00 | 0.00 | 0.00 | 88 | 1023.9 |
| 20260902170749 | 78 | 210 | 4.0 | 5.0 | 0.00 | 0.00 | 0.00 | 88 | 1023.9 |
| 20260902170248 | 78 | 202 | 4.0 | 4.0 | 0.00 | 0.00 | 0.00 | 88 | 1023.9 |
| 20260902165744 | 78 | 225 | 3.0 | 4.0 | 0.00 | 0.00 | 0.00 | 89 | 1024.0 |
| 20260902165247 | 78 | 212 | 3.0 | 4.0 | 0.00 | 0.00 | 0.00 | 89 | 1023.9 |
| 20260902164746 | 77 | 210 | 3.0 | 5.0 | 0.00 | 0.00 | 0.00 | 89 | 1024.0 |
| 20260902164244 | 77 | 225 | 2.0 | 5.0 | 0.00 | 0.00 | 0.00 | 89 | 1024.0 |
| 20260902163745 | 77 | 220 | 4.0 | 5.0 | 0.00 | 0.00 | 0.00 | 90 | 1024.1 |
| 20260902163244 | 77 | 216 | 4.0 | 5.0 | 0.00 | 0.00 | 0.00 | 90 | 1024.2 |
| 20260902162744 | 77 | 226 | 3.0 | 5.0 | 0.00 | 0.00 | 0.00 | 90 | 1024.1 |
| 20260902162557 | 77 | 210 | 4.0 | 5.0 | 0.00 | 0.00 | 0.00 | 90 | 1024.2 |
| 20260902161744 | 77 | 201 | 4.0 | 6.0 | 0.00 | 0.00 | 0.00 | 89 | 1024.2 |
| 20260902161244 | 77 | 198 | 4.0 | 6.0 | 0.00 | 0.00 | 0.00 | 89 | 1024.3 |
| 20260902160745 | 78 | 216 | 4.0 | 6.0 | 0.00 | 0.00 | 0.00 | 89 | 1024.3 |
| 20260902160620 | 78 | 219 | 3.0 | 5.0 | 0.00 | 0.00 | 0.00 | 88 | 1024.4 |
| 20260902155744 | 78 | 199 | 3.0 | 5.0 | 0.00 | 0.00 | 0.00 | 88 | 1024.4 |
| 20260902155244 | 78 | 218 | 3.0 | 6.0 | 0.00 | 0.00 | 0.00 | 89 | 1024.5 |
| 20260902154743 | 78 | 219 | 3.0 | 6.0 | 0.00 | 0.00 | 0.00 | 89 | 1024.5 |
| 20260902154243 | 78 | 196 | 4.0 | 6.0 | 0.00 | 0.00 | 0.00 | 89 | 1024.6 |
| 20260902153744 | 78 | 218 | 3.0 | 6.0 | 0.00 | 0.00 | 0.00 | 89 | 1024.6 |
| 20260902153239 | 77 | 191 | 3.0 | 6.0 | 0.00 | 0.00 | 0.00 | 90 | 1024.6 |
| 20260902152737 | 77 | 225 | 4.0 | 7.0 | 0.00 | 0.00 | 0.00 | 90 | 1024.6 |
| 20260902152237 | 77 | 210 | 4.0 | 7.0 | 0.00 | 0.00 | 0.00 | 90 | 1024.6 |
| 20260902151733 | 77 | 212 | 6.0 | 6.0 | 0.00 | 0.00 | 0.00 | 89 | 1024.7 |
| 20260902151232 | 77 | 226 | 4.0 | 6.0 | 0.00 | 0.00 | 0.00 | 89 | 1024.7 |
| 20260902150731 | 77 | 225 | 4.0 | 7.0 | 0.00 | 0.00 | 0.00 | 90 | 1024.8 |
| 20260902150231 | 77 | 215 | 6.0 | 7.0 | 0.00 | 0.00 | 0.00 | 90 | 1024.7 |
| 20260902145725 | 77 | 205 | 4.0 | 7.0 | 0.00 | 0.00 | 0.00 | 90 | 1024.8 |
| 20260902145225 | 77 | 223 | 7.0 | 7.0 | 0.00 | 0.00 | 0.00 | 89 | 1024.8 |
| 20260902144725 | 77 | 212 | 5.0 | 7.0 | 0.00 | 0.00 | 0.00 | 89 | 1024.8 |
| 20260902144223 | 78 | 203 | 4.0 | 7.0 | 0.00 | 0.00 | 0.00 | 89 | 1024.9 |
| 20260902144041 | 78 | 229 | 4.0 | 7.0 | 0.00 | 0.00 | 0.00 | 89 | 1024.8 |
| 20260902143221 | 78 | 208 | 5.0 | 7.0 | 0.00 | 0.00 | 0.00 | 89 | 1024.8 |
| 20260902143038 | 78 | 206 | 4.0 | 7.0 | 0.00 | 0.00 | 0.00 | 90 | 1024.8 |
| 20260902142218 | 77 | 220 | 5.0 | 6.0 | 0.00 | 0.00 | 0.00 | 90 | 1024.8 |
| 20260902141715 | 77 | 203 | 4.0 | 6.0 | 0.00 | 0.00 | 0.00 | 90 | 1024.8 |
| 20260902141214 | 77 | 206 | 5.0 | 6.0 | 0.00 | 0.00 | 0.00 | 90 | 1024.9 |
| 20260902141027 | 77 | 187 | 4.0 | 6.0 | 0.00 | 0.00 | 0.00 | 91 | 1024.9 |
| 20260902140523 | 77 | 171 | 5.0 | 6.0 | 0.00 | 0.00 | 0.00 | 91 | 1024.9 |
| 20260902135707 | 77 | 229 | 4.0 | 6.0 | 0.00 | 0.00 | 0.00 | 91 | 1024.9 |
| 20260902135203 | 76 | 199 | 4.0 | 7.0 | 0.00 | 0.00 | 0.00 | 92 | 1024.9 |
| 20260902134703 | 76 | 198 | 5.0 | 7.0 | 0.00 | 0.00 | 0.00 | 92 | 1024.9 |
| 20260902134202 | 76 | 185 | 6.0 | 7.0 | 0.00 | 0.00 | 0.00 | 91 | 1025.0 |
| 20260902133704 | 76 | 189 | 5.0 | 6.0 | 0.00 | 0.00 | 0.00 | 91 | 1025.0 |
| 20260902133158 | 76 | 199 | 5.0 | 6.0 | 0.00 | 0.00 | 0.00 | 90 | 1025.0 |
| 20260902132657 | 77 | 196 | 5.0 | 6.0 | 0.00 | 0.00 | 0.00 | 91 | 1025.0 |
| 20260902132156 | 77 | 206 | 5.0 | 6.0 | 0.00 | 0.00 | 0.00 | 91 | 1025.0 |
| 20260902132010 | 76 | 195 | 5.0 | 6.0 | 0.00 | 0.00 | 0.00 | 91 | 1025.1 |
| 20260902131152 | 76 | 191 | 5.0 | 7.0 | 0.00 | 0.00 | 0.00 | 91 | 1025.1 |
| 20260902130646 | 76 | 189 | 6.0 | 7.0 | 0.00 | 0.00 | 0.00 | 91 | 1025.0 |
| 20260902130145 | 76 | 196 | 6.0 | 6.0 | 0.00 | 0.00 | 0.00 | 91 | 1025.2 |
| 20260902125642 | 76 | 201 | 5.0 | 6.0 | 0.00 | 0.00 | 0.00 | 91 | 1025.2 |
| 20260902125454 | 76 | 192 | 5.0 | 6.0 | 0.00 | 0.00 | 0.00 | 92 | 1025.2 |
| 20260902124637 | 76 | 188 | 5.0 | 6.0 | 0.00 | 0.00 | 0.00 | 91 | 1025.2 |
| 20260902124138 | 76 | 199 | 5.0 | 6.0 | 0.00 | 0.00 | 0.00 | 92 | 1025.2 |
| 20260902123635 | 76 | 174 | 5.0 | 6.0 | 0.00 | 0.00 | 0.00 | 92 | 1025.2 |
| 20260902123442 | 76 | 201 | 5.0 | 6.0 | 0.00 | 0.00 | 0.00 | 91 | 1025.3 |
| 20260902122732 | 76 | 198 | 5.0 | 6.0 | 0.00 | 0.00 | 0.00 | 90 | 1025.3 |
| 20260902121956 | 77 | 174 | 4.0 | 7.0 | 0.00 | 0.00 | 0.00 | 90 | 1025.4 |
| 20260902121132 | 76 | 184 | 5.0 | 7.0 | 0.00 | 0.00 | 0.00 | 91 | 1025.3 |
| 20260902120945 | 76 | 174 | 5.0 | 7.0 | 0.00 | 0.00 | 0.00 | 91 | 1025.3 |
| 20260902120130 | 76 | 167 | 4.0 | 6.0 | 0.00 | 0.00 | 0.00 | 92 | 1025.3 |
| 20260902115634 | 76 | 163 | 5.0 | 6.0 | 0.00 | 0.00 | 0.00 | 92 | 1025.4 |
| 20260902115127 | 76 | 181 | 4.0 | 6.0 | 0.00 | 0.00 | 0.00 | 92 | 1025.3 |
| 20260902114625 | 76 | 164 | 6.0 | 6.0 | 0.00 | 0.00 | 0.00 | 91 | 1025.3 |
| 20260902114123 | 76 | 161 | 5.0 | 6.0 | 0.00 | 0.00 | 0.00 | 91 | 1025.3 |
| 20260902113623 | 76 | 189 | 4.0 | 6.0 | 0.00 | 0.00 | 0.00 | 92 | 1025.3 |
| 20260902113435 | 76 | 192 | 5.0 | 6.0 | 0.00 | 0.00 | 0.00 | 92 | 1025.3 |
| 20260902112620 | 76 | 177 | 5.0 | 6.0 | 0.00 | 0.00 | 0.00 | 92 | 1025.3 |
| 20260902112118 | 76 | 157 | 4.0 | 5.0 | 0.00 | 0.00 | 0.00 | 92 | 1025.3 |
| 20260902111927 | 76 | 165 | 3.0 | 4.0 | 0.00 | 0.00 | 0.00 | 92 | 1025.2 |
| 20260902111115 | 76 | 168 | 4.0 | 4.0 | 0.00 | 0.00 | 0.00 | 93 | 1025.1 |
| 20260902110609 | 75 | 168 | 3.0 | 4.0 | 0.00 | 0.00 | 0.00 | 93 | 1025.2 |
| 20260902110114 | 75 | 160 | 3.0 | 5.0 | 0.00 | 0.00 | 0.00 | 94 | 1025.2 |
| 20260902105602 | 75 | 144 | 3.0 | 5.0 | 0.00 | 0.00 | 0.00 | 93 | 1025.2 |
| 20260902105103 | 75 | 141 | 4.0 | 5.0 | 0.00 | 0.00 | 0.00 | 93 | 1025.2 |
| 20260902104602 | 75 | 137 | 4.0 | 5.0 | 0.00 | 0.00 | 0.00 | 93 | 1025.1 |
| 20260902104104 | 75 | 147 | 3.0 | 5.0 | 0.00 | 0.00 | 0.00 | 93 | 1025.0 |
| 20260902103603 | 75 | 137 | 2.0 | 6.0 | 0.00 | 0.00 | 0.00 | 93 | 1025.0 |
| 20260902103103 | 75 | 137 | 3.0 | 6.0 | 0.00 | 0.00 | 0.00 | 93 | 1024.9 |
| 20260902102604 | 75 | 132 | 4.0 | 4.0 | 0.00 | 0.00 | 0.00 | 92 | 1025.0 |
| 20260902102103 | 75 | 257 | 2.0 | 3.0 | 0.00 | 0.00 | 0.00 | 92 | 1025.0 |
| 20260902101601 | 75 | 257 | 0.0 | 0.0 | 0.00 | 0.00 | 0.00 | 92 | 1024.8 |
| 20260902101057 | 75 | 257 | 0.0 | 0.0 | 0.00 | 0.00 | 0.00 | 92 | 1024.9 |
| 20260902100907 | 75 | 257 | 0.0 | 2.0 | 0.00 | 0.00 | 0.00 | 92 | 1024.9 |
| 20260902100054 | 75 | 257 | 0.0 | 3.0 | 0.00 | 0.00 | 0.00 | 92 | 1024.9 |
| 20260902095554 | 75 | 257 | 1.0 | 4.0 | 0.00 | 0.00 | 0.00 | 92 | 1024.9 |
| 20260902095049 | 75 | 257 | 2.0 | 4.0 | 0.00 | 0.01 | 0.00 | 93 | 1025.0 |
| 20260902094545 | 74 | 257 | 3.0 | 4.0 | 0.00 | 0.01 | 0.00 | 92 | 1025.0 |
| 20260902094046 | 74 | 257 | 3.0 | 4.0 | 0.00 | 0.01 | 0.00 | 92 | 1025.1 |
| 20260902093857 | 75 | 267 | 3.0 | 4.0 | 0.00 | 0.01 | 0.00 | 91 | 1025.0 |
| 20260902093409 | 75 | 267 | 3.0 | 4.0 | 0.00 | 0.01 | 0.00 | 92 | 1024.9 |
| 20260902092907 | 75 | 8 | 0.0 | 0.0 | 0.00 | 0.01 | 0.00 | 91 | 1024.8 |
| 20260902092036 | 75 | 8 | 0.0 | 0.0 | 0.00 | 0.01 | 0.00 | 91 | 1024.8 |
| 20260902091534 | 75 | 7 | 0.0 | 2.0 | 0.00 | 0.01 | 0.00 | 91 | 1024.7 |
| 20260902091036 | 75 | 8 | 0.0 | 3.0 | 0.00 | 0.01 | 0.00 | 91 | 1024.8 |
| 20260902090535 | 74 | 8 | 2.0 | 3.0 | 0.00 | 0.01 | 0.00 | 91 | 1024.8 |
| 20260902090035 | 75 | 8 | 0.0 | 2.0 | 0.00 | 0.01 | 0.00 | 92 | 1024.7 |
| 20260902085533 | 75 | 7 | 1.0 | 3.0 | 0.00 | 0.01 | 0.00 | 92 | 1024.6 |
| 20260902085345 | 74 | 8 | 0.0 | 3.0 | 0.00 | 0.01 | 0.00 | 92 | 1024.6 |
| 20260902084533 | 74 | 7 | 2.0 | 3.0 | 0.00 | 0.01 | 0.00 | 93 | 1024.6 |
| 20260902084031 | 74 | 8 | 2.0 | 4.0 | 0.00 | 0.01 | 0.00 | 94 | 1024.5 |
| 20260902083532 | 73 | 8 | 3.0 | 5.0 | 0.00 | 0.01 | 0.00 | 94 | 1024.5 |
| 20260902083030 | 73 | 13 | 4.0 | 5.0 | 0.00 | 0.01 | 0.00 | 95 | 1024.4 |
| 20260902082524 | 72 | 3 | 3.0 | 4.0 | 0.00 | 0.01 | 0.00 | 95 | 1024.3 |
| 20260902082024 | 71 | 3 | 2.0 | 4.0 | 0.00 | 0.01 | 0.00 | 95 | 1024.4 |
| 20260902081519 | 71 | 3 | 2.0 | 4.0 | 0.00 | 0.01 | 0.00 | 94 | 1024.4 |
| 20260902081017 | 71 | 3 | 3.0 | 4.0 | 0.00 | 0.01 | 0.00 | 94 | 1024.4 |
| 20260902080515 | 71 | 3 | 2.0 | 3.0 | 0.00 | 0.01 | 0.00 | 94 | 1024.4 |
| 20260902080011 | 71 | 3 | 0.0 | 3.0 | 0.00 | 0.01 | 0.00 | 94 | 1024.4 |
| 20260902075509 | 71 | 3 | 0.0 | 2.0 | 0.00 | 0.01 | 0.00 | 95 | 1024.4 |
| 20260902075008 | 71 | 3 | 0.0 | 2.0 | 0.00 | 0.01 | 0.00 | 94 | 1024.4 |
| 20260902074847 | 71 | 3 | 1.0 | 2.0 | 0.00 | 0.01 | 0.00 | 94 | 1024.3 |
| 20260902074100 | 71 | 3 | 2.0 | 5.0 | 0.00 | 0.01 | 0.00 | 95 | 1024.2 |
| 20260902073005 | 71 | 3 | 4.0 | 5.0 | 0.00 | 0.01 | 0.00 | 94 | 1024.2 |
| 20260902072507 | 70 | 3 | 3.0 | 4.0 | 0.00 | 0.01 | 0.00 | 94 | 1024.1 |
| 20260902072004 | 70 | 3 | 3.0 | 4.0 | 0.00 | 0.01 | 0.00 | 94 | 1024.1 |
| 20260902071503 | 70 | 3 | 4.0 | 4.0 | 0.00 | 0.01 | 0.00 | 94 | 1024.1 |
| 20260902071002 | 71 | 3 | 0.0 | 0.0 | 0.00 | 0.01 | 0.00 | 94 | 1024.0 |
| 20260902070458 | 70 | 4 | 0.0 | 0.0 | 0.00 | 0.01 | 0.00 | 94 | 1023.9 |
| 20260902065955 | 70 | 3 | 0.0 | 0.0 | 0.00 | 0.01 | 0.00 | 94 | 1023.9 |
| 20260902065453 | 70 | 4 | 0.0 | 0.0 | 0.00 | 0.01 | 0.00 | 94 | 1024.0 |
| 20260902064954 | 70 | 3 | 0.0 | 0.0 | 0.00 | 0.01 | 0.00 | 94 | 1023.9 |
| 20260902064807 | 70 | 3 | 0.0 | 0.0 | 0.00 | 0.01 | 0.00 | 93 | 1024.0 |
| 20260902063948 | 71 | 3 | 0.0 | 0.0 | 0.00 | 0.01 | 0.00 | 94 | 1024.0 |
| 20260902063445 | 71 | 3 | 0.0 | 0.0 | 0.00 | 0.01 | 0.00 | 94 | 1023.9 |
| 20260902062942 | 71 | 3 | 0.0 | 0.0 | 0.00 | 0.01 | 0.00 | 94 | 1023.8 |
| 20260902062443 | 70 | 4 | 0.0 | 0.0 | 0.00 | 0.01 | 0.00 | 93 | 1023.8 |
| 20260902062256 | 71 | 3 | 0.0 | 0.0 | 0.00 | 0.01 | 0.00 | 93 | 1023.8 |
| 20260902061439 | 71 | 3 | 0.0 | 0.0 | 0.00 | 0.01 | 0.00 | 93 | 1023.8 |
| 20260902060935 | 71 | 3 | 0.0 | 1.0 | 0.00 | 0.01 | 0.00 | 93 | 1023.8 |
| 20260902060436 | 71 | 3 | 1.0 | 2.0 | 0.00 | 0.01 | 0.00 | 94 | 1023.8 |
| 20260902060238 | 71 | 3 | 0.0 | 4.0 | 0.00 | 0.01 | 0.00 | 93 | 1023.8 |
| 20260902055431 | 70 | 3 | 2.0 | 5.0 | 0.00 | 0.01 | 0.00 | 93 | 1023.8 |
| 20260902054934 | 71 | 3 | 3.0 | 5.0 | 0.00 | 0.01 | 0.00 | 93 | 1023.8 |
| 20260902054433 | 71 | 30 | 3.0 | 4.0 | 0.00 | 0.01 | 0.00 | 93 | 1023.9 |
| 20260902054032 | 71 | 30 | 3.0 | 4.0 | 0.00 | 0.01 | 0.00 | 92 | 1023.9 |
| 20260902053248 | 71 | 30 | 3.0 | 4.0 | 0.00 | 0.01 | 0.00 | 93 | 1023.9 |
| 20260902052431 | 71 | 30 | 4.0 | 6.0 | 0.00 | 0.01 | 0.00 | 93 | 1023.8 |
| 20260902052407 | 71 | 28 | 4.0 | 6.0 | 0.00 | 0.01 | 0.00 | 93 | 1023.8 |
| 20260902050931 | 71 | 30 | 4.0 | 6.0 | 0.00 | 0.01 | 0.00 | 93 | 1023.8 |
| 20260902050433 | 71 | 27 | 5.0 | 6.0 | 0.00 | 0.01 | 0.00 | 93 | 1023.8 |
| 20260902045931 | 71 | 21 | 4.0 | 5.0 | 0.00 | 0.01 | 0.00 | 93 | 1023.7 |
| 20260902045431 | 71 | 21 | 4.0 | 6.0 | 0.00 | 0.01 | 0.00 | 94 | 1023.7 |
| 20260902044929 | 71 | 14 | 5.0 | 6.0 | 0.00 | 0.02 | 0.00 | 94 | 1023.7 |
| 20260902044424 | 71 | 15 | 4.0 | 5.0 | 0.00 | 0.06 | 0.00 | 94 | 1023.7 |
| 20260902043926 | 71 | 8 | 3.0 | 4.0 | 0.00 | 0.06 | 0.00 | 94 | 1023.7 |
| 20260902043422 | 71 | 8 | 4.0 | 4.0 | 0.00 | 0.06 | 0.00 | 94 | 1023.8 |
| 20260902043231 | 71 | 10 | 2.0 | 5.0 | 0.00 | 0.06 | 0.00 | 94 | 1023.8 |
| 20260902042416 | 71 | 8 | 4.0 | 5.0 | 0.00 | 0.06 | 0.00 | 95 | 1023.9 |
| 20260902041916 | 71 | 8 | 4.0 | 5.0 | 0.00 | 0.06 | 0.00 | 95 | 1023.8 |
| 20260902041415 | 71 | 8 | 4.0 | 5.0 | 0.00 | 0.06 | 0.00 | 95 | 1023.8 |
| 20260902041224 | 71 | 8 | 4.0 | 5.0 | 0.00 | 0.06 | 0.00 | 95 | 1023.8 |
| 20260902040409 | 71 | 357 | 4.0 | 4.0 | 0.00 | 0.06 | 0.00 | 95 | 1023.7 |
| 20260902035907 | 71 | 357 | 3.0 | 4.0 | 0.00 | 0.06 | 0.00 | 95 | 1023.8 |
| 20260902035405 | 71 | 357 | 3.0 | 3.0 | 0.00 | 0.06 | 0.00 | 95 | 1023.9 |
| 20260902035006 | 71 | 357 | 2.0 | 3.0 | 0.00 | 0.06 | 0.00 | 95 | 1023.8 |
| 20260902033903 | 71 | 357 | 2.0 | 4.0 | 0.00 | 0.06 | 0.00 | 95 | 1023.9 |
| 20260902033522 | 71 | 356 | 3.0 | 4.0 | 0.00 | 0.06 | 0.00 | 95 | 1023.9 |
| 20260902032402 | 71 | 356 | 2.0 | 4.0 | 0.00 | 0.06 | 0.00 | 95 | 1023.8 |
| 20260902031904 | 71 | 357 | 2.0 | 4.0 | 0.00 | 0.06 | 0.00 | 95 | 1023.9 |
| 20260902031403 | 71 | 356 | 3.0 | 4.0 | 0.00 | 0.06 | 0.00 | 95 | 1023.9 |
| 20260902030904 | 71 | 357 | 3.0 | 5.0 | 0.00 | 0.06 | 0.00 | 95 | 1023.9 |
| 20260902030404 | 71 | 356 | 4.0 | 5.0 | 0.00 | 0.06 | 0.00 | 95 | 1024.0 |
| 20260902025903 | 71 | 20 | 2.0 | 4.0 | 0.00 | 0.06 | 0.00 | 95 | 1024.0 |
| 20260902025358 | 71 | 20 | 3.0 | 3.0 | 0.00 | 0.06 | 0.00 | 94 | 1023.9 |
| 20260902024859 | 71 | 20 | 2.0 | 4.0 | 0.00 | 0.06 | 0.00 | 94 | 1023.8 |
| 20260902024356 | 71 | 20 | 3.0 | 5.0 | 0.00 | 0.06 | 0.00 | 94 | 1023.9 |
| 20260902023852 | 71 | 20 | 4.0 | 5.0 | 0.00 | 0.06 | 0.00 | 94 | 1024.1 |
| 20260902023722 | 71 | 20 | 4.0 | 5.0 | 0.00 | 0.06 | 0.00 | 94 | 1024.1 |
| 20260902022848 | 71 | 20 | 4.0 | 5.0 | 0.00 | 0.06 | 0.00 | 94 | 1024.1 |
| 20260902022344 | 71 | 20 | 4.0 | 5.0 | 0.00 | 0.06 | 0.00 | 94 | 1024.2 |
| 20260902021843 | 71 | 20 | 3.0 | 4.0 | 0.00 | 0.06 | 0.00 | 94 | 1024.1 |
| 20260902021654 | 71 | 20 | 3.0 | 4.0 | 0.00 | 0.06 | 0.00 | 94 | 1024.2 |
| 20260902021156 | 71 | 20 | 1.0 | 3.0 | 0.00 | 0.06 | 0.00 | 94 | 1024.2 |
| 20260902020347 | 71 | 20 | 2.0 | 4.0 | 0.00 | 0.06 | 0.00 | 94 | 1024.2 |
| 20260902015834 | 72 | 20 | 3.0 | 5.0 | 0.00 | 0.06 | 0.00 | 94 | 1024.2 |
| 20260902015335 | 72 | 20 | 4.0 | 5.0 | 0.00 | 0.06 | 0.00 | 95 | 1024.3 |
| 20260902014832 | 72 | 20 | 4.0 | 5.0 | 0.00 | 0.06 | 0.00 | 95 | 1024.4 |
| 20260902014332 | 72 | 20 | 3.0 | 4.0 | 0.00 | 0.06 | 0.00 | 95 | 1024.5 |
| 20260902013831 | 72 | 20 | 3.0 | 5.0 | 0.00 | 0.06 | 0.00 | 95 | 1024.5 |
| 20260902013331 | 72 | 20 | 4.0 | 5.0 | 0.00 | 0.06 | 0.00 | 95 | 1024.5 |
| 20260902013142 | 72 | 340 | 1.0 | 3.0 | 0.00 | 0.06 | 0.00 | 95 | 1024.6 |
| 20260902012333 | 72 | 340 | 1.0 | 4.0 | 0.00 | 0.06 | 0.00 | 95 | 1024.6 |
| 20260902011930 | 72 | 342 | 3.0 | 5.0 | 0.00 | 0.06 | 0.00 | 95 | 1024.6 |
| 20260902010831 | 72 | 340 | 4.0 | 5.0 | 0.00 | 0.06 | 0.00 | 95 | 1024.7 |
| 20260902010332 | 72 | 340 | 4.0 | 5.0 | 0.00 | 0.06 | 0.00 | 94 | 1024.7 |
| 20260902010245 | 72 | 342 | 4.0 | 4.0 | 0.00 | 0.06 | 0.00 | 94 | 1024.7 |
| 20260902005330 | 72 | 340 | 0.0 | 0.0 | 0.00 | 0.06 | 0.00 | 94 | 1024.7 |
| 20260902004828 | 73 | 342 | 0.0 | 0.0 | 0.00 | 0.06 | 0.00 | 94 | 1024.7 |
| 20260902004326 | 73 | 340 | 0.0 | 0.0 | 0.00 | 0.06 | 0.00 | 95 | 1024.8 |
| 20260902003824 | 73 | 342 | 0.0 | 0.0 | 0.00 | 0.06 | 0.00 | 95 | 1024.8 |
| 20260902003326 | 73 | 340 | 0.0 | 0.0 | 0.00 | 0.06 | 0.00 | 95 | 1024.7 |
| 20260902002825 | 73 | 340 | 0.0 | 0.0 | 0.00 | 0.06 | 0.00 | 95 | 1024.8 |
| 20260902002323 | 73 | 340 | 0.0 | 0.0 | 0.00 | 0.06 | 0.00 | 95 | 1024.7 |
| 20260902001822 | 73 | 340 | 0.0 | 0.0 | 0.00 | 0.06 | 0.00 | 95 | 1024.7 |
| 20260902001321 | 73 | 342 | 0.0 | 0.0 | 0.00 | 0.06 | 0.00 | 95 | 1024.7 |
| 20260902000817 | 73 | 340 | 0.0 | 0.0 | 0.00 | 0.06 | 0.00 | 95 | 1024.7 |
| 20260902000644 | 73 | 342 | 0.0 | 0.0 | 0.00 | 0.06 | 0.00 | 95 | 1024.6 |
| 20260901235811 | 73 | 340 | 0.0 | 0.0 | 0.00 | 0.06 | 0.06 | 95 | 1024.6 |
| 20260901235308 | 73 | 342 | 0.0 | 0.0 | 0.00 | 0.06 | 0.06 | 95 | 1024.6 |
| 20260901234804 | 73 | 340 | 0.0 | 0.0 | 0.00 | 0.06 | 0.06 | 95 | 1024.6 |
| 20260901234303 | 73 | 340 | 0.0 | 0.0 | 0.00 | 0.06 | 0.06 | 95 | 1024.7 |
| 20260901233802 | 73 | 342 | 0.0 | 0.0 | 0.00 | 0.06 | 0.06 | 95 | 1024.7 |
| 20260901233303 | 73 | 340 | 0.0 | 0.0 | 0.00 | 0.06 | 0.06 | 95 | 1024.8 |
| 20260901232802 | 73 | 340 | 0.0 | 0.0 | 0.00 | 0.06 | 0.06 | 95 | 1024.7 |
| 20260901232644 | 73 | 342 | 0.0 | 2.0 | 0.00 | 0.06 | 0.06 | 95 | 1024.7 |
| 20260901231801 | 73 | 340 | 0.0 | 3.0 | 0.00 | 0.06 | 0.06 | 95 | 1024.7 |
| 20260901231256 | 73 | 340 | 2.0 | 3.0 | 0.00 | 0.06 | 0.06 | 94 | 1024.7 |
| 20260901230751 | 73 | 342 | 0.0 | 3.0 | 0.00 | 0.06 | 0.06 | 95 | 1024.8 |
| 20260901230246 | 73 | 342 | 2.0 | 3.0 | 0.00 | 0.06 | 0.06 | 95 | 1024.8 |
| 20260901225748 | 73 | 340 | 2.0 | 3.0 | 0.00 | 0.06 | 0.06 | 95 | 1024.9 |
| 20260901225246 | 73 | 342 | 2.0 | 3.0 | 0.00 | 0.06 | 0.06 | 95 | 1024.9 |
| 20260901224744 | 73 | 340 | 2.0 | 3.0 | 0.00 | 0.06 | 0.06 | 95 | 1024.9 |
| 20260901224242 | 73 | 342 | 2.0 | 3.0 | 0.00 | 0.06 | 0.06 | 95 | 1024.8 |
| 20260901223735 | 73 | 340 | 2.0 | 4.0 | 0.00 | 0.06 | 0.06 | 95 | 1024.8 |
| 20260901223235 | 73 | 340 | 3.0 | 5.0 | 0.00 | 0.06 | 0.06 | 95 | 1024.8 |
| 20260901222740 | 73 | 340 | 4.0 | 5.0 | 0.00 | 0.06 | 0.06 | 95 | 1024.9 |
| 20260901222235 | 73 | 340 | 4.0 | 5.0 | 0.00 | 0.06 | 0.06 | 95 | 1024.8 |
| 20260901221845 | 73 | 342 | 4.0 | 5.0 | 0.00 | 0.06 | 0.06 | 94 | 1024.8 |
| 20260901221059 | 73 | 342 | 4.0 | 4.0 | 0.00 | 0.06 | 0.06 | 94 | 1024.7 |
| 20260901220231 | 73 | 340 | 4.0 | 4.0 | 0.00 | 0.06 | 0.06 | 94 | 1024.7 |
| 20260901215733 | 73 | 351 | 4.0 | 4.0 | 0.00 | 0.06 | 0.06 | 94 | 1024.6 |
| 20260901215552 | 74 | 351 | 4.0 | 4.0 | 0.00 | 0.06 | 0.06 | 94 | 1024.5 |